CAPE
0 0 0 0 0 0 0 0 0 0 0 0 0 0 0 0 0 0 0 0 0 0 0 0 0 0 0 0 0 0 0 0 0 0 0 0 0 0 0 0 0 0 0 0
0 0 0 0 0 0 0 0 0 0 0 0 0 0 0 0 0 0 0 0 0 0 0 0 0 0 0 0 0 0 0 0 0 0 0 0 0 0 0 0 0 0 0 0
0 0 0 0 0 0 0 0 0 0 0 0 0 0 0 0 0 0 0 0 0 0 0 0 0 0 0 0 0 0 0 0 0 0 0 0 0 0 0 0 0 0 0 0
0 0 0 0 0 0 0 0 0 0 0 0 0 0 0 0 0 0 0 0 0 0 0 0 0 0 0 0 0 0 0 0 0 0 0 0 0 0 0 0 0 0 0 0
0 0 0 0 0 0 0 0 0 0 0 0 0 0 0 0 0 0 0 0 0 0 0 0 0 0 0 0 0 0 0 0 0 0 0 0 0 0 0 0 0 0 0 0
0 0 0 0 0 0 0 0 0 0 0 0 0 0 0 0 0 0 0 0 0 0 0 0 0 0 0 0 0 0 0 0 0 0 0 0 0 0 0 0 0 0 0 0
0 0 0 0 0 0 0 0 0 1 1 0 0 0 0 0 0 0 0 0 0 0 0 0 0 0 0 0 0 0 0 0 0 0 0 0 0 0 0 0 0 0 0 0
1 11 0 0 0 0 3 1 1 0 2 2 0 0 0 0 0 0 0 0 0 0 0 0 0 0 0 0 0 1 0 0 0 0 0 0 0 0 0 0 0 0 0 0
0 0 0 0 0 0 0 1 1 1 0 0 0 0 20 1 0 0 0 0 0 0 0 0 0 0 0 0 0 0 1 0 0 0 0 0 0 0 0 0 0 0 0 0
0 0 0 0 0 0 0 2 10 8 0 5 1 1 0 6 0 0 0 0 0 0 0 0 0 0 0 0 0 0 1 0 0 0 0 0 0 0 0 0 0 0 0 0
3 5 16 0 0 5 0 6 4 5 9 10 5 2 5 0 0 1 0 0 0 0 0 0 0 0 0 0 0 0 0 0 0 0 0 0 0 0 0 0 0 0 0 0
0 2 5 26 2 3 0 0 4 9 12 14 15 2 0 0 0 0 0 0 0 0 0 0 0 0 0 0 0 0 0 0 0 0 0 0 0 0 0 0 0 0 0 0
6 0 0 0 0 1 0 2 1 15 16 0 11 0 0 0 0 0 0 0 0 0 0 0 0 0 1 0 2 1 0 0 0 0 0 0 0 0 0 0 0 0 0 0
0 0 0 0 0 0 0 0 2 7 12 5 18 10 0 0 0 0 0 0 0 0 0 1 0 1 4 1 3 1 0 0 0 0 0 0 0 0 0 0 0 0 0 0
0 0 0 0 0 0 0 0 0 1 9 16 3 4 2 0 0 0 0 0 0 0 0 2 0 1 1 0 0 1 0 0 0 1 0 0 0 0 0 0 0 0 0 0
14 2 0 0 0 4 3 0 0 0 0 3 9 1 0 0 0 0 0 0 0 0 3 9 2 0 0 0 0 0 0 0 0 0 1 0 0 0 0 0 0 0 0 0
22 9 5 0 0 20 12 0 0 0 3 7 8 1 0 8 36 52 20 14 29 30 31 18 5 5 0 0 0 0 0 0 0 0 1 0 0 0 0 0 0 0 0 0
0 0 0 0 0 0 0 0 0 1 1 0 11 26 24 22 59 60 72 107 31 6 0 17 53 5 0 0 0 0 0 0 0 0 1 1 1 1 0 0 0 0 0 0
0 0 0 0 0 0 0 0 0 0 0 0 7 15 17 34 75 137 231 53 0 0 0 0 0 25 0 0 0 0 0 1 0 0 0 1 1 1 2 2 0 0 0 0
0 0 0 0 0 0 0 0 0 16 9 0 8 38 52 143 133 180 244 0 0 0 0 0 0 0 2 1 1 0 0 1 1 2 2 1 1 2 1 0 0 0 0 0
1 5 0 0 2 0 0 0 8 14 0 75 24 98 81 101 195 106 28 0 0 0 0 0 0 2 0 3 2 1 1 0 1 1 1 0 0 1 1 0 0 0 0 0
0 1 20 13 13 8 0 9 30 66 23 66 41 98 154 186 75 17 0 0 0 0 0 0 0 2 2 4 2 2 2 0 1 1 1 0 1 1 0 0 0 1 0 1
0 0 0 4 5 13 55 47 38 9 5 2 0 6 24 75 14 0 0 0 0 0 0 0 1 4 4 2 1 3 1 1 0 1 1 1 1 0 0 0 0 1 1 2
5 11 9 9 2 19 11 34 1 5 10 36 31 121 91 7 0 0 0 0 0 0 0 0 1 3 3 2 1 0 2 1 2 2 2 2 1 1 0 0 0 0 0 1
0 0 0 2 4 2 0 1 9 0 50 62 42 76 72 9 0 0 0 0 1 2 0 0 2 3 4 1 1 2 2 1 1 0 1 1 1 1 0 0 0 0 0 0
0 0 0 0 0 0 0 0 0 0 34 110 65 98 8 0 0 0 0 0 0 1 1 1 1 2 4 2 3 3 2 1 1 2 1 1 0 0 0 0 0 0 0 0
CIN
0 0 0 0 0 0 0 0 0 0 0 0 0 0 0 0 0 0 0 0 0 0 0 0 0 0 0 0 0 0 0 0 0 0 0 0 0 0 0 0 0 0 0 0
0 0 0 0 0 0 0 0 0 0 0 0 0 0 0 0 0 0 0 0 0 0 0 0 0 0 0 0 0 0 0 0 0 0 0 0 0 0 0 0 0 0 0 0
0 0 0 0 0 0 0 0 0 0 0 0 0 0 0 0 0 0 0 0 0 0 0 0 0 0 0 0 0 0 0 0 0 0 0 0 0 0 0 0 0 0 0 0
0 0 0 0 0 -0 0 0 0 0 0 0 0 0 0 0 0 0 0 0 0 0 0 0 0 0 0 0 0 0 0 0 0 0 0 0 0 0 0 0 0 0 0 0
0 0 0 0 0 -2 0 0 0 0 0 0 0 0 0 -0 0 0 0 0 0 0 0 0 0 0 0 0 0 0 0 0 0 0 0 0 0 0 0 0 0 0 0 0
0 0 0 0 0 0 0 0 0 0 0 0 0 0 0 -6 0 0 0 0 0 0 0 0 0 0 0 0 0 0 0 0 0 0 0 0 0 0 0 0 0 0 0 0
0 0 0 0 0 0 0 0 0 -6 -2 0 0 -1 0 0 0 0 0 0 0 0 0 0 0 0 0 0 0 0 0 0 0 0 0 0 0 0 0 0 0 0 0 0
-1 -3 0 0 0 0 -4 -3 -3 -6 -4 -5 0 0 0 0 0 0 0 0 0 0 0 0 0 0 0 0 -2 -1 0 0 0 0 0 0 0 0 0 0 0 0 0 0
0 -0 0 0 0 0 -0 -1 -2 -4 -1 -0 0 0 -6 -1 -4 0 0 0 0 0 0 0 0 0 0 0 0 -1 -2 0 0 0 0 0 0 0 0 0 0 0 0 0
0 -3 0 0 0 0 0 -6 -11 -4 -0 -3 -3 -3 0 -19 -17 0 0 0 0 0 0 0 0 0 0 0 0 0 -1 0 0 0 0 0 0 0 0 0 0 0 0 0
-3 -1 -4 0 0 -4 -9 -6 -10 -10 -11 -2 -2 -1 -20 0 0 -3 0 0 0 0 0 0 0 0 0 0 0 0 0 0 0 0 0 0 0 0 0 0 0 0 0 0
0 -1 -2 -5 -10 -23 -1 -5 -14 -5 -2 -3 -1 -1 0 0 0 0 0 0 0 0 0 0 0 0 0 -0 0 0 -1 0 0 0 0 0 0 0 0 0 0 0 0 0
-5 0 0 0 0 -1 0 -1 -5 -4 -4 0 -2 -1 0 0 0 0 0 0 0 0 0 0 0 0 -0 -1 -1 -1 -1 -1 0 0 0 0 0 0 0 0 0 0 0 0
0 0 0 0 0 0 0 -21 -5 -6 -4 -3 -5 -6 0 0 0 0 0 0 0 0 0 -1 -0 -1 -1 -2 -1 -0 -1 -1 -1 0 -1 0 0 0 0 0 0 0 0 0
0 0 0 0 0 0 0 0 0 -2 -6 -5 -5 -8 -8 0 0 0 0 0 0 0 -0 -1 0 -1 -0 0 0 -2 -2 0 -0 -2 -1 -0 0 0 0 0 0 0 0 0
-1 -0 0 0 -0 -2 -3 0 0 0 0 -3 -3 -3 0 0 0 0 0 0 0 -1 -3 -2 -1 0 0 0 0 0 0 0 0 0 -1 -0 0 0 0 0 0 0 0 0
-2 -1 -1 0 -1 -3 -3 0 0 0 -5 -5 -5 -2 -5 -10 -6 -6 -5 -12 -17 -26 -40 -47 -1 -35 -1 0 0 0 0 0 0 -0 0 0 0 -0 0 0 0 0 0 0
0 0 -0 0 0 -1 0 0 0 -2 -4 -6 -8 -11 -10 -11 -6 -5 -6 -4 -30 -71 0 -56 -20 -80 0 0 0 0 -1 0 0 0 0 0 0 0 0 0 0 0 0 0
0 0 0 0 0 0 0 0 0 0 0 0 -8 -10 -10 -11 -7 -3 -15 -62 -6 0 0 0 -8 -66 0 0 0 0 0 0 0 0 0 0 0 0 0 0 0 0 0 0
0 0 0 -0 -0 0 0 0 -0 -6 -4 -0 -16 -12 -6 -3 -4 -5 -22 0 0 0 0 0 0 0 0 0 0 0 0 0 0 0 0 0 0 0 0 0 0 0 0 0
-1 -7 0 -2 -2 0 0 0 -4 -2 0 -42 -77 -6 -6 -5 -3 -19 -77 0 0 0 0 0 0 0 0 0 0 0 0 0 0 0 0 0 0 0 0 0 0 0 0 0
0 -2 -6 -4 -2 -0 0 -5 -5 -7 -12 -5 -25 -23 -3 -1 -16 -82 0 0 0 0 0 0 0 0 0 0 0 0 0 0 0 0 0 0 0 0 0 0 0 -0 0 -1
-0 -2 -9 -8 -6 -4 -4 -8 -13 -4 -8 -30 -3 -89 -204 -8 -31 0 0 0 0 0 0 0 0 0 0 0 0 0 0 0 0 0 0 0 0 0 0 0 0 -0 -1 -1
-13 -9 -15 -5 -2 -6 -10 -14 -3 -1 -9 -10 -9 -4 -10 -27 0 0 0 0 0 0 0 0 0 0 0 0 0 0 0 0 0 0 0 0 0 0 0 0 -1 -0 -1 -1
-1 0 0 -10 -3 -7 -1 -5 -4 0 -34 -5 -12 -3 -4 -28 0 0 0 0 0 0 0 0 0 0 0 0 0 0 0 0 0 0 0 0 0 0 0 0 0 0 -1 -1
0 0 0 0 0 0 0 0 0 0 -7 -3 -5 -5 -32 0 0 0 0 0 -0 0 -0 -0 0 0 0 0 0 0 0 0 0 0 0 0 0 0 0 0 0 0 0 0
Wind_Speed
18 26 30 27 27 32 36 38 37 34 30 30 32 34 34 29 26 21 21 21 20 20 19 18 16 14 13 12 11 11 10 9 8 8 8 10 11 11 12 14 14 14 15 15
23 29 27 26 28 30 32 34 36 34 32 34 36 39 36 32 31 28 27 21 21 21 19 18 16 15 15 15 14 12 12 11 10 9 9 9 10 10 10 12 14 14 14 14
27 22 19 24 27 31 32 34 35 37 38 41 41 50 38 30 25 25 24 22 22 22 21 19 17 16 17 18 16 15 14 13 12 11 10 9 9 10 10 10 12 12 13 13
32 28 32 31 34 28 36 31 34 36 36 42 35 52 37 35 33 21 22 21 21 24 22 20 19 18 18 18 17 16 15 14 13 12 11 10 10 10 9 10 11 11 11 12
26 25 25 29 32 30 34 30 33 34 37 41 37 39 39 17 21 24 29 17 20 23 26 26 22 19 18 19 20 18 16 15 15 14 13 12 11 11 9 9 8 10 10 11
30 23 22 26 26 25 25 27 29 30 33 42 37 34 38 29 24 23 22 22 26 32 24 24 24 17 17 19 21 21 20 19 17 16 16 15 14 12 11 10 10 9 10 11
30 34 32 25 28 26 25 29 36 35 34 42 34 32 29 19 23 25 27 27 28 30 29 30 25 17 19 20 20 21 22 23 20 19 19 18 16 14 13 11 12 11 10 11
28 30 26 26 29 30 29 30 34 40 41 43 31 34 31 23 24 25 26 27 30 30 29 26 26 25 22 22 21 21 23 23 22 21 21 19 18 17 15 13 13 13 11 11
32 31 23 23 21 23 31 33 31 39 39 39 38 40 37 36 24 26 28 29 31 32 32 31 27 24 21 21 21 21 22 23 22 23 22 21 19 18 17 15 13 13 12 11
23 32 20 17 18 17 22 17 29 29 39 45 43 38 36 21 27 30 33 38 39 38 36 34 30 26 22 20 19 18 20 23 22 22 22 21 20 19 18 16 15 14 13 12
19 24 21 20 23 26 22 23 22 25 29 39 42 38 18 29 28 32 37 42 38 40 41 41 33 28 24 21 18 19 19 19 20 21 21 21 20 19 18 18 16 15 13 12
19 25 29 27 21 18 21 23 21 32 34 31 38 43 36 39 37 38 46 45 40 42 41 41 39 33 28 24 22 19 18 18 18 19 19 19 19 19 18 17 15 14 14 13
20 26 35 35 28 23 28 29 27 28 31 39 43 45 41 43 45 48 48 45 41 43 43 42 41 39 33 28 26 24 21 19 19 18 18 19 19 18 17 16 15 14 13 12
21 29 34 40 33 23 28 25 25 28 36 39 41 43 44 48 48 50 48 45 45 43 43 44 43 40 37 32 29 26 24 21 19 18 19 17 18 18 17 16 14 13 12 12
25 36 34 35 34 36 38 36 35 38 39 43 44 45 45 48 51 48 46 42 42 44 43 41 42 40 37 34 30 28 27 25 23 21 20 18 17 15 13 13 12 11 11 11
23 33 31 40 34 33 36 36 36 38 40 44 44 47 43 43 42 43 41 41 42 42 42 40 39 37 35 33 31 29 26 25 23 22 23 20 17 13 12 11 12 11 11 11
25 28 32 45 35 35 40 37 38 39 38 37 40 37 35 35 33 35 39 37 36 35 35 35 37 35 34 32 27 26 24 23 22 20 20 17 16 13 12 12 13 12 11 10
30 32 33 41 40 47 40 37 38 41 40 38 36 34 33 34 32 30 28 28 29 32 35 36 37 34 28 30 26 21 21 19 20 18 16 16 14 13 12 13 11 10 11 10
26 29 33 36 40 39 42 35 37 38 41 36 35 33 30 29 26 26 20 21 27 31 34 34 35 35 28 24 18 16 11 16 18 18 17 19 15 15 12 10 11 11 8 7
23 26 30 33 40 44 40 38 33 31 42 29 28 26 22 21 21 23 19 27 29 28 29 31 33 35 30 21 15 12 7 10 13 14 13 12 9 9 10 11 8 6 5 5
30 24 29 32 37 39 37 36 33 36 34 27 31 20 22 20 25 27 26 30 28 28 28 28 30 32 26 20 13 10 9 4 2 7 8 8 9 7 6 5 4 3 3 3
33 32 30 30 34 40 27 32 28 29 30 30 32 31 19 24 25 25 27 27 26 28 28 29 29 27 24 21 16 13 10 9 4 1 7 7 7 5 4 4 3 3 4 5
36 33 37 34 35 28 25 25 25 32 34 35 34 33 19 24 24 26 27 26 26 28 29 28 28 26 23 18 16 16 12 6 3 4 2 5 4 3 3 3 1 2 2 3
32 28 29 31 29 31 38 37 39 41 42 41 35 27 29 26 26 25 24 25 25 27 28 28 27 25 22 20 16 13 10 7 5 2 1 5 7 5 2 2 1 2 2 2
32 33 31 33 33 38 44 41 37 41 40 41 32 28 25 19 23 23 23 23 25 26 27 28 27 25 21 18 15 11 8 6 5 3 6 5 3 2 2 5 3 2 2 3
30 34 35 38 41 42 43 44 41 43 40 37 27 24 20 21 22 23 24 25 27 28 29 28 26 24 22 17 14 10 6 5 4 2 1 1 4 4 2 3 5 9 8 10
Wind_Direction
285 284 280 287 287 288 290 291 291 294 300 297 295 294 294 295 291 281 282 279 269 261 267 261 255 252 250 248 251 256 263 270 280 292 303 317 328 340 343 341 343 344 342 343
283 283 286 289 290 292 292 290 289 293 295 294 295 292 294 294 291 287 285 278 275 270 265 257 249 251 250 254 255 250 254 257 266 280 292 308 324 333 339 339 339 346 347 345
279 288 304 286 289 290 288 288 289 290 292 289 293 288 296 296 284 281 282 277 280 274 272 262 249 253 256 256 253 254 252 252 259 271 284 299 318 323 326 329 334 343 348 348
283 286 285 284 285 291 287 291 290 290 290 287 295 289 299 300 300 300 296 287 284 286 279 271 252 254 260 263 261 255 252 251 254 258 269 271 287 299 309 317 325 337 347 348
283 286 289 287 287 287 285 293 293 290 289 290 290 291 299 323 311 309 313 295 300 299 292 282 270 253 260 267 267 262 258 254 255 256 260 264 276 292 302 310 315 326 337 345
281 290 291 292 294 293 294 294 293 290 290 283 289 288 294 304 310 318 323 325 318 309 302 295 284 258 264 271 268 267 262 258 253 255 259 259 266 277 281 290 298 308 320 328
280 277 281 284 286 287 290 288 287 285 279 282 292 289 285 323 316 312 312 318 324 319 313 304 295 274 277 275 270 269 266 263 259 256 257 259 263 267 271 277 289 295 306 316
289 286 282 280 272 285 285 279 280 285 283 284 299 285 293 314 318 320 323 321 323 325 322 319 310 298 287 282 276 273 271 263 260 259 258 259 260 265 271 273 285 291 299 309
287 284 297 296 290 279 284 280 286 284 285 285 283 282 284 296 310 311 313 320 323 322 321 316 315 307 297 287 280 278 275 268 264 261 259 259 259 262 269 274 279 287 295 302
298 284 295 301 308 297 290 305 286 286 282 279 282 285 287 302 306 306 308 310 312 313 316 316 312 308 301 293 284 281 278 272 267 263 260 259 259 262 267 271 274 280 288 295
296 292 295 296 293 291 290 283 290 294 289 287 285 282 300 310 318 313 312 314 313 312 313 311 312 308 301 295 287 283 278 272 268 263 261 260 260 261 264 268 273 278 282 289
303 296 286 286 309 303 295 292 289 286 288 289 288 283 295 301 307 309 310 312 312 309 313 313 311 310 301 293 287 281 276 265 262 261 259 258 258 259 262 266 269 274 279 287
302 292 287 288 288 286 292 288 284 290 292 285 287 287 294 297 299 303 305 309 311 309 312 312 311 307 301 297 288 283 276 267 259 256 255 255 255 256 261 265 266 270 274 285
302 289 285 282 287 309 296 293 291 292 288 290 287 294 296 297 300 302 304 307 308 309 310 311 311 308 304 297 291 283 274 267 259 252 253 253 253 258 258 261 262 264 273 282
293 285 287 287 289 288 286 287 287 287 289 287 292 293 295 298 300 302 305 307 308 308 312 311 312 311 307 300 292 285 273 266 261 255 255 256 255 255 255 254 255 263 274 284
291 288 291 286 290 288 285 284 285 288 289 290 292 293 298 302 303 303 306 310 310 312 314 315 314 313 310 305 294 286 274 265 259 254 255 256 251 254 250 247 253 265 272 284
287 290 290 285 292 290 285 285 288 288 289 289 288 294 298 300 303 309 310 313 315 319 322 322 320 315 311 309 298 289 274 264 255 252 250 244 245 246 246 251 257 261 268 273
285 287 288 286 290 282 288 290 291 291 292 293 293 298 300 304 308 312 316 318 322 321 319 318 318 321 323 316 310 298 282 257 249 248 239 241 240 242 244 252 256 257 266 275
277 281 285 284 285 290 290 293 296 294 291 295 299 301 301 308 314 314 325 326 323 321 319 321 316 312 328 329 335 318 301 262 248 244 238 240 239 243 243 243 245 258 260 264
280 273 277 282 284 285 291 295 301 304 294 302 297 295 297 309 308 313 322 313 326 333 331 329 324 310 321 333 344 358 326 275 252 243 233 233 234 231 241 240 244 251 256 272
286 279 273 278 282 286 292 297 302 292 300 318 310 313 299 303 297 302 314 312 328 330 333 339 339 327 332 335 346 3 15 53 325 245 230 240 243 235 224 199 206 219 261 292
282 281 278 281 282 286 302 302 298 305 303 305 295 301 299 295 298 307 310 315 324 325 329 334 343 350 352 340 341 340 353 353 38 95 238 244 235 216 193 187 228 253 282 295
278 279 282 281 284 294 306 305 304 297 293 289 282 287 300 292 298 305 306 311 321 320 323 335 343 349 357 1 359 334 333 1 16 68 130 152 151 161 219 235 202 294 323 323
284 287 282 286 290 288 284 291 289 282 277 278 284 296 289 289 300 304 310 311 319 325 323 329 337 346 354 352 1 8 2 341 329 329 157 152 149 133 164 219 1 339 324 325
286 289 289 286 285 283 275 280 287 285 281 280 284 290 291 305 304 306 312 318 322 326 326 324 326 332 340 352 352 8 30 41 31 23 116 119 184 194 234 280 331 5 39 336
281 278 277 278 275 276 272 275 280 282 278 282 281 282 294 305 310 308 312 319 321 321 322 323 323 323 325 331 340 349 17 48 57 39 264 159 142 124 82 52 351 331 329 328